sat.trackr.live / text

‹ back to catalog

STARLINK-34880

NORAD 65327 · 2025-189E

PAYLOAD ACTIVE UNKNOWN

§ Identity

Operator
Country
US
Launch date
2025-08-27
Launch site
AFETR
Launch vehicle
Mass (kg)
RCS (m²)

Purposes: comms

External: N2YO · Heavens-Above · Gunter

§ Orbital elements

Epoch: 2026-05-25T03:57:16.337088Z

Period
94.11 min
Inclination
53.1593°
Eccentricity
0.0001074
Mean motion
15.30204753 rev/d
Perigee alt
474.5 km
Apogee alt
475.9 km
Semi-major
6,853.3 km
B*
3.9347e-4
RAAN
211.6584°
Arg perigee
80.9977°
Mean anomaly
279.1145°
Rev number
4,281

§ Raw data

STARLINK-348801 65327U 25189E   26145.16477242  .00011314  00000+0  39347-3 0  99972 65327  53.1593 211.6584 0001074  80.9977 279.1145 15.30204753 42814

JSON: /api/v1/satellites/65327 · /tle

For live sub-satellite position, see the globe view (requires WebGL).

§ Visibility from observer

Set your observer location to see the next 7 days of passes ≥ 10°. The values pass through the URL so the page stays shareable.

No JS? Fill the form by hand. The geolocation button needs JavaScript.